Regional Weather Roundup
Issued by NWS

Home | Current Version | Previous Version | Text Only | Print | Product List | Glossary Off
Versions: 1 2 3 4 5 6 7 8 9 10 11 12 13 14 15 16 17 18 19 20 21 22 23 24 25 26 27 28 29 30 31 32 33 34 35 36 37 38 39 40 41 42 43 44 45 46 47 48 49 50

000
ASUS43 KLSX 191010
RWRMO

WEATHER SUMMARY FOR MISSOURI
NATIONAL WEATHER SERVICE SPRINGFIELD MO
500 AM CDT THU APR 19 2018

NOTE: "FAIR" INDICATES FEW OR NO CLOUDS BELOW 12,000 FEET WITH NO
       SIGNIFICANT WEATHER AND/OR OBSTRUCTIONS TO VISIBILITY.
       CURRENT SKY AND/OR WEATHER CONDITIONS ARE NOT AVAILABLE FOR
       CHILLICOTHE AND FARMINGTON.

MOZ001>031-035>038-043-044-053-054-191100-
...NORTHERN AND WESTERN MISSOURI...

CITY           SKY/WX    TMP DP  RH WIND       PRES   REMARKS
KANSAS CTY INT PTCLDY    32  27  81 N10       30.30R WCI  24
KANSAS C DTWN  PTCLDY    36  28  73 N10       30.31R WCI  28
LEE`S SUMMIT   CLOUDY    35  28  75 N10       30.30R WCI  27
ST JOSEPH      CLEAR     29  27  92 N6        30.33R WCI  23
CHILLICOTHE      N/A     31  26  82 N5        30.30R WCI  26
KIRKSVILLE     CLOUDY    30  28  92 NW6       30.26R WCI  24

$$
MOZ066>068-077>081-088>096-101>105-191100-
...SOUTHWEST MISSOURI...

CITY           SKY/WX    TMP DP  RH WIND       PRES   REMARKS
SPRINGFIELD    CLOUDY    37  27  67 NW13      30.25R WCI  29
JOPLIN         CLOUDY    33  27  78 W6        30.31R WCI  28
BRANSON        CLOUDY    36  23  60 NW7       30.26R WCI  30

$$
MOZ032>034-039>042-045>050-055>058-069>072-191100-
...CENTRAL MISSOURI...

CITY           SKY/WX    TMP DP  RH WIND       PRES   REMARKS
COLUMBIA       PTCLDY    33  25  72 N12       30.25R WCI  24
JEFFERSON CITY CLOUDY    35  25  66 N12       30.27R WCI  27
ROLLA          PTCLDY    33  24  69 N14       30.22R WCI  23
SEDALIA        CLOUDY    37  33  85 NW8       30.27R
WHITEMAN AFB   PTCLDY    36  29  76 N12       30.24R WCI  28
WARRENSBURG    CLOUDY    36  30  80 N9        30.29R WCI  29
OSAGE BEACH    CLOUDY    38  27  64 NW8       30.25R

$$
MOZ051-052-059>065-191100-
...EAST CENTRAL MISSOURI...

CITY           SKY/WX    TMP DP  RH WIND       PRES   REMARKS
ST LOUIS INTL  CLOUDY    36  27  69 N14       30.21R WCI  27
SPIRIT OF STL  CLOUDY    38  27  64 NW14      30.22R WCI  30
ST CHARLES     CLOUDY    36  25  64 NW12G21   30.21R WCI  28

$$
MOZ072>076-082>087-097>100-106>115-191100-
...SOUTH CENTRAL AND SOUTHEAST MISSOURI...

CITY           SKY/WX    TMP DP  RH WIND       PRES   REMARKS
CAPE GIRARDEAU CLOUDY    42  26  53 N16       30.18R
FARMINGTON     CLOUDY    38  25  59 NW17      30.19R WCI  28
POPLAR BLUFF   CLOUDY    44  31  60 N14       30.18R
WEST PLAINS    CLOUDY    37  24  59 NW10      30.21R WCI  30

$$



USA.gov is the U.S. government's official web portal to all federal, state and local government web resources and services.